Location: Chomutov
(50.4500°N, 13.4333°E)
Time: 01:36:39
(UTC+02:00)

FO-29 - Pass Details

Date: 02 October 2021
Orbit: 800 x 1321 km, 98.6° (Epoch: 27 October)

Event Time Altitude Azimuth Distance (km) Brightness Sun altitude
Exits shadow 21:46:02 44° 178° (S) 1,753 10.5 -28.9°
Maximum altitude 21:48:54 78° 256° (WSW) 1,353 10.1 -29.3°
Drops below altitude 10° 21:56:46 10° 344° (NNW) 3,321 12.9 -30.3°
Sets 21:59:27 0° 346° (NNW) 4,260 13.5 -30.6°
